SCP
0 0 0 0 0 0 0 0 0 0 0 0 0 0 0 0 0 0 0 0 0 0 0 0 0 0 0 0 0 0 0 0 0 0 0 0 0 0 0 0 0 0 0 0 0 0 0
0 0 0 0 0 0 0 0 0 0 0 0 0 0 0 0 0 0 0 0 0 0 0 0 0 0 0 0 0 0 0 0 0 0 0 0 0 0 0 0 0 0 0 0 0 0 0
0 0 0 0 0 0 0 0 0 0 0 0 0 0 0 0 0 0 0 0 0 0 0 0 0 0 0 0 0 0 0 0 0 0 0 0 0 0 0 0 0 0 0 0 0 0 0
0 0 0 0 0 0 0 0 0 0 0 0 0 0 0 0 0 0 0 0 0 0 0 0 0 0 0 0 0 0 0 0 0 0 0 0 0 0 0 0 0 0 0 0 0 0 0
0 0 0 0 0 0 0 0 0 0 0 0 0 0 0 0 0 0 0 0 0 0 0 0 0 0 0 0 0 0 0 0 0 0 0 0 0 0 0 0 0 0 0 0 0 0 0
0 0 0 0 0 0 0 0 0 0 0 0 0 0 0 0 0 0 0 0 0 0 0 0 0 0 0 0 0 0 0 0 0 0 0 0 0 0 0 0 0 0 0 0 0 0 0
0 0 0 0 0 0 0 0 0 0 0 0 0 0 0 0 0 0 0 0 0 0 0 0 0 0 0 0 0 0 0 0 0 0 0 0 0 0 0 0 0 0 0 0 0 0 0
0 0 0 0 0 0 0 0 0 0 0 0 0 0 0 0 0 0 0 0 0 0 0 0 0 0 0 0 0 0 0 0 0 0 0 0 0 0 0 0 0 0 0 0 0 0 0
0 0 0 0 0 0 0 0 0 0 0 0 0 0 0 0 0 0 0 0 0 0 0 0 0 0 0 0 0 0 0 0 0 0 0 0 0 0 0 0 0 0 0 0 0 -0 0
0 0 0 0 0 0 0 0 0 0 0 0 0 0 0 0 0 0 0 0 -0 0 0 0 0 0 0 0 0 0 0 0 0 0 0 0 0 0 0 0 0 0 0 0 0 0 0
0 0 0 0 0 0 0 0 0 0 0 0 0 0 0 0 0 0 0 0 0 0 0 0 0 0 0 0 0 0 0 0 0 0 0 0 0 0 0 0 0 0 0 0 0 0 0
0 0 0 0 0 0 0 0 0 0 0 0 0 0 0 0 0 0 0 0 0 0 0 0 0 0 0 0 0 0 0 0 0 0 0 0 0 0 0 0 0 0 0 0 0 0 0
0 0 0 0 0 0 0 0 0 0 0 0 0 0 0 0 0 0 0 0 0 0 0 0 0 0 0 0 0 0 0 0 0 0 0 0 0 0 0 0 0 0 0 0 0 0 0
0 0 0 0 0 0 0 0 0 0 0 0 0 0 0 0 0 0 0 0 0 0 0 0 0 0 0 0 0 0 0 0 0 0 0 0 0 0 0 0 0 0 0 0 0 0 0
0 0 0 0 0 0 0 0 0 0 0 0 0 0 0 0 0 0 0 0 0 0 0 0 0 0 0 0 0 0 0 0 0 0 0 0 0 0 0 0 0 0 0 0 0 0 0
0 0 0 0 0 0 0 0 0 0 0 0 0 0 0 0 0 0 0 0 0 0 0 0 0 0 0 0 0 0 0 0 0 0 0 0 0 0 0 0 0 0 0 0 0 0 0
0 0 0 0 0 0 0 0 0 0 0 0 0 0 0 0 0 0 0 0 0 0 0 0 0 0 0 0 0 0 0 0 0 0 0 0 0 0 0 0 0 0 0 0 0 0 0
0 0 0 0 0 0 0 0 0 0 0 0 0 0 0 0 0 0 0 0 0 0 0 0 0 0 0 0 0 0 0 0 0 0 0 0 0 0 0 0 0 0 0 0 0 0 0
0 0 0 0 0 0 0 0 0 0 0 0 0 0 0 0 0 0 0 0 0 0 0 0 0 0 0 0 0 0 0 0 0 0 0 0 0 0 0 0 0 0 0 0 0 0 0
0 0 0 0 0 0 0 0 0 0 0 0 0 0 0 0 0 0 0 -0 0 0 0 0 0 0 0 0 0 0 0 0 0 0 0 0 0 0 0 0 0 0 0 0 0 0 0
0 0 0 0 0 0 0 0 0 0 0 0 0 0 0 0 0 0 0 0 0 0 0 0 0 0 0 0 0 0 0 0 0 0 0 0 0 0 0 0 0 0 0 0 0 0 0
0 0 0 0 0 0 0 0 0 0 0 0 0 0 0 0 0 0 0 0 0 0 0 0 -0 0 0 0 0 0 0 0 0 0 0 0 0 0 0 0 0 0 0 0 0 0 0
0 0 0 0 0 0 0 0 0 0 0 0 0 0 0 0 0 0 0 0 0 0 0 0 -0 0 0 0 0 0 0 0 0 0 0 0 0 0 0 0 0 0 0 0 0 0 0
0 0 0 0 0 0 0 0 0 0 0 0 0 0 0 0 0 0 0 0 0 0 0 0 0 0 0 0 0 0 0 0 0 0 0 0 0 0 0 0 0 0 0 0 0 0 0
0 0 0 0 0 0 0 0 0 0 0 0 0 0 0 0 0 0 0 0 0 0 0 0 0 0 0 0 0 0 0 0 0 0 0 0 0 0 0 0 0 0 0 0 0 0 0
0 0 0 0 0 0 0 0 0 0 0 0 0 0 0 0 0 0 0 0 0 0 0 0 0 0 0 0 0 0 0 0 0 0 0 0 0 0 0 0 0 0 0 0 0 0 0
0 0 0 0 0 0 0 0 0 0 0 0 0 0 0 0 0 0 0 0 0 0 0 0 -0 0 0 0 0 0 0 0 0 0 0 0 0 0 -0 -0 -0 0 0 0 0 0 0
0 0 0 0 0 0 0 0 0 0 0 0 0 0 0 0 0 0 0 0 0 0 0 0 0 0 0 0 0 0 0 0 0 0 0 0 -0 0 -0 -0 0 0 0 0 0 0 0
0 0 0 0 0 0 0 0 0 0 0 0 0 0 0 0 0 0 0 0 0 0 0 0 0 0 0 0 -0 0 0 0 0 0 0 0 0 0 -0 0 -0 -0 0 -0 -0 -0 0
Wind_Speed_500mb
10 12 14 14 14 15 16 16 17 17 18 19 19 21 24 26 28 29 30 29 25 22 12 6 5 7 4 3 2 19 18 10 10 9 7 12 8 7 7 6 4 5 1 10 17 28 25
13 14 15 15 16 17 18 19 18 18 19 18 19 21 24 26 28 31 32 28 26 22 12 5 6 7 7 5 1 17 10 6 8 11 20 13 6 11 11 5 2 2 18 26 19 14 10
16 16 17 17 18 19 19 20 21 19 19 18 19 21 24 27 30 32 33 30 27 17 9 8 6 6 6 9 6 20 2 5 6 8 12 14 14 2 7 6 3 6 10 15 5 4 7
15 16 17 19 20 21 22 22 22 21 20 20 22 25 26 28 29 31 31 30 25 14 7 9 7 7 5 8 2 16 8 5 4 6 6 6 4 5 3 3 4 5 4 16 7 9 4
17 16 19 19 19 20 21 24 25 23 21 22 24 28 30 31 31 31 29 28 21 11 7 9 9 7 5 12 3 8 6 5 6 4 4 1 2 2 3 4 3 6 18 28 20 4 9
17 16 19 22 22 23 22 24 25 24 22 23 25 28 30 33 31 29 26 27 14 9 8 11 12 5 12 10 11 5 5 7 6 8 3 2 1 5 2 10 8 14 19 21 32 13 20
17 18 23 28 26 24 22 24 26 26 24 22 25 27 29 33 30 26 25 14 7 6 9 10 7 4 16 9 15 3 2 9 5 4 6 2 7 8 1 3 3 12 20 39 34 22 20
20 22 26 30 33 27 20 21 24 26 26 25 23 24 27 32 31 22 23 13 11 13 11 16 14 9 11 11 9 3 1 9 7 8 4 6 11 7 2 3 10 14 31 27 18 17 27
24 24 26 32 28 22 24 22 26 27 29 27 27 25 26 33 24 26 20 25 16 11 7 5 11 8 7 8 8 3 4 8 5 7 7 10 4 7 3 7 11 15 21 19 35 44 20
23 24 27 28 23 19 20 25 32 30 32 31 28 26 24 29 15 30 17 24 15 17 5 5 4 3 6 6 4 4 3 5 4 6 4 11 5 4 10 5 4 12 6 25 33 14 9
25 27 31 22 20 20 20 21 22 28 27 34 32 28 25 24 23 20 20 17 15 9 9 5 5 6 5 4 4 5 1 3 6 5 5 4 5 4 5 3 2 14 29 26 7 8 11
36 34 21 21 24 23 22 25 25 24 26 31 29 27 31 23 22 17 18 17 10 1 12 3 4 4 3 2 1 3 3 3 4 3 7 6 1 3 3 4 5 21 12 7 2 5 7
13 13 16 20 21 24 32 29 28 27 26 25 25 27 33 27 16 18 10 8 4 7 2 1 2 1 2 3 3 1 1 3 4 4 4 4 4 3 4 6 5 17 15 7 6 5 6
11 13 14 14 20 22 27 34 40 36 30 26 26 25 29 31 22 15 4 6 10 1 4 0 1 1 6 1 4 1 3 6 5 3 2 3 5 3 4 4 3 12 6 4 14 11 13
12 12 15 15 15 20 24 29 33 35 32 28 25 21 30 30 22 15 9 4 7 3 2 2 3 2 6 4 4 5 8 5 5 10 5 3 5 6 5 3 5 8 3 4 7 4 9
16 15 16 15 17 18 27 27 33 21 22 21 20 20 17 16 12 15 3 11 6 2 2 5 5 2 6 6 5 4 10 7 10 3 4 5 7 1 6 4 9 4 13 3 5 11 13
15 20 15 18 19 19 24 20 25 19 12 4 8 4 2 9 12 9 5 7 2 1 6 7 5 4 11 5 6 5 6 5 5 9 7 8 3 5 3 8 6 7 6 5 3 5 7
12 17 16 16 20 16 21 12 3 5 3 4 5 2 9 13 3 1 3 2 1 2 7 8 6 1 6 4 4 7 6 2 13 16 8 8 2 7 0 2 3 2 4 6 5 4 8
13 11 13 10 17 16 16 19 12 7 4 4 4 5 11 12 2 3 1 4 8 6 10 5 8 8 1 5 6 5 3 4 14 11 6 11 4 7 5 4 4 8 9 7 8 3 12
13 11 14 17 20 25 17 17 10 15 10 11 4 3 4 9 3 2 4 5 4 8 10 6 4 5 2 6 6 5 4 5 10 4 8 12 4 10 7 5 3 6 11 18 9 6 4
15 16 14 14 17 18 22 5 14 7 9 15 7 3 6 1 4 6 1 3 4 5 8 7 6 15 11 7 4 8 6 6 6 13 6 3 7 3 10 4 5 8 10 22 22 7 12
15 14 17 13 16 17 17 7 10 4 14 16 5 4 4 3 3 9 9 6 6 3 8 7 11 6 14 9 3 3 9 9 7 14 9 4 3 2 7 2 6 12 17 22 27 11 24
16 15 16 15 17 18 17 13 4 9 9 4 4 6 2 9 7 4 5 6 4 2 9 5 12 6 11 12 17 13 8 2 6 12 17 9 5 2 7 2 9 12 12 24 10 13 11
23 18 14 15 14 20 16 9 17 11 9 8 8 7 2 4 6 8 6 9 7 10 7 4 13 7 2 7 8 8 13 13 8 9 7 10 6 2 8 6 5 2 3 5 11 11 29
23 22 19 18 15 18 19 11 25 22 7 5 10 11 8 4 8 7 8 8 8 8 7 7 13 10 14 3 3 3 1 1 4 1 4 2 5 3 5 5 13 4 9 13 13 9 27
36 29 27 25 21 19 17 18 9 32 26 13 10 11 10 4 8 12 3 5 4 4 2 4 5 12 11 2 3 4 6 0 4 5 7 9 9 2 4 5 6 3 5 12 4 7 19
43 40 34 28 21 23 20 18 15 7 29 27 17 14 13 11 17 24 9 7 7 4 2 3 7 9 12 4 6 7 4 3 6 15 13 8 7 11 8 9 17 4 13 14 3 6 27
44 39 45 41 30 21 24 24 19 15 11 14 25 18 12 14 20 29 32 26 12 9 4 10 5 6 5 7 7 4 6 6 4 7 12 17 18 9 8 7 12 23 16 12 3 3 41
45 49 40 48 42 31 19 24 26 21 13 12 20 21 27 15 16 22 34 31 34 32 21 21 6 7 15 7 5 2 6 4 2 6 5 7 10 7 18 10 2 62 11 36 9 8 34
Wind_Direction_500mb
26 18 16 12 6 4 357 356 355 353 355 355 357 355 353 351 348 347 346 343 338 334 321 311 182 182 193 126 81 360 2 30 43 56 119 88 99 128 136 161 200 241 292 272 268 289 290
22 13 10 8 5 357 352 350 350 351 351 356 356 353 351 349 349 345 341 338 333 326 301 261 190 183 205 237 251 347 349 65 83 83 77 83 103 123 118 149 233 222 293 290 291 282 281
13 11 359 353 352 353 352 346 343 344 347 349 351 351 348 344 343 343 338 335 330 320 281 228 202 190 220 202 311 340 110 137 107 105 99 83 69 153 136 136 155 296 296 302 266 201 262
348 347 349 349 349 346 341 342 340 340 340 343 344 342 342 339 338 341 336 334 327 316 258 224 214 195 214 193 307 345 160 156 119 153 121 84 75 66 55 350 104 279 249 337 68 278 276
328 328 331 327 332 338 337 338 337 336 336 339 339 338 338 338 336 334 332 330 318 304 251 225 213 206 209 184 197 18 171 230 197 196 180 124 278 71 282 348 165 58 321 322 329 205 284
298 313 324 328 317 316 326 331 330 329 330 335 338 339 338 337 336 339 334 329 311 284 242 228 227 188 192 205 192 30 204 196 223 173 191 250 203 241 250 8 342 318 320 311 307 327 269
293 304 317 318 317 302 302 314 319 320 322 328 335 344 344 343 337 342 343 336 344 275 225 227 218 218 154 192 197 308 265 185 188 191 233 34 246 256 256 121 285 286 292 301 304 333 282
290 304 301 306 307 295 289 299 301 310 311 315 322 335 346 348 343 347 352 2 333 288 295 240 216 197 175 182 193 307 157 183 203 232 189 217 242 121 151 236 275 295 304 308 313 273 294
296 300 306 320 309 283 270 270 289 297 304 305 310 319 338 347 345 350 357 0 349 349 264 241 208 199 201 200 201 168 149 168 219 218 215 253 83 131 297 304 305 300 286 310 305 322 276
281 299 315 318 326 324 296 287 280 289 290 296 300 305 322 339 344 344 354 352 357 344 294 170 204 203 187 181 216 180 114 172 176 268 213 259 114 202 266 275 356 309 104 317 319 320 316
304 304 306 298 299 301 297 294 292 291 294 286 291 298 309 325 326 336 333 340 348 356 307 105 149 174 188 200 146 217 70 150 226 192 172 75 192 218 268 144 216 261 321 308 292 260 312
295 295 292 294 285 285 288 287 288 293 299 298 292 290 293 306 317 320 327 332 341 327 248 124 136 176 219 137 174 282 152 94 137 197 215 277 231 245 294 284 232 307 311 281 203 251 248
310 304 282 278 292 302 274 272 280 287 299 310 297 280 274 285 281 296 319 351 12 231 77 3 290 244 262 210 206 280 124 181 244 262 218 192 177 135 322 274 159 17 336 327 271 253 308
299 320 335 300 288 304 313 292 270 275 283 298 311 288 273 268 263 255 150 63 232 91 241 89 143 188 255 65 213 199 205 222 193 202 130 297 246 197 4 32 29 57 10 34 299 316 313
276 290 315 325 326 330 326 325 296 274 275 284 301 281 256 258 260 234 148 158 242 223 337 313 227 184 241 208 255 235 221 231 157 186 226 196 237 118 57 129 282 116 60 87 265 201 274
274 266 288 301 312 327 332 342 349 309 278 285 292 232 237 254 244 177 105 233 225 96 51 58 264 235 280 181 204 223 193 148 160 151 159 124 274 157 134 155 57 42 139 204 159 309 296
270 282 268 289 296 307 324 5 30 13 39 4 245 229 213 201 177 137 230 228 323 67 214 200 248 231 256 272 209 240 218 141 169 137 106 143 253 130 166 201 160 157 161 134 244 243 294
283 287 294 300 305 306 319 331 331 75 145 166 288 65 187 163 102 162 236 284 46 346 271 267 250 177 257 279 257 242 242 246 157 156 155 165 247 258 168 360 325 24 171 165 208 164 237
317 334 346 322 314 335 322 325 242 275 229 200 215 116 196 178 245 230 167 232 223 182 224 250 214 216 170 223 237 226 235 73 156 173 164 164 205 287 193 189 177 225 179 155 109 113 227
323 337 346 356 359 349 346 354 346 256 273 210 194 126 100 196 208 259 229 221 233 208 247 181 204 157 243 227 214 294 244 144 177 172 138 149 259 252 256 311 52 204 188 186 184 213 181
296 310 323 341 353 354 357 32 43 75 244 188 204 221 162 158 235 214 194 305 212 248 225 206 233 219 205 236 224 229 206 155 174 171 116 183 256 234 272 280 250 263 208 192 202 191 235
266 298 317 334 348 347 360 169 60 90 165 175 225 170 115 159 147 174 197 222 227 214 181 221 232 164 216 234 237 345 176 206 194 177 190 141 255 278 268 132 223 269 229 214 228 235 263
276 265 288 313 328 334 348 196 135 63 146 163 217 252 272 174 161 176 222 243 280 150 210 222 226 176 198 249 291 268 206 319 201 173 190 172 201 273 268 287 278 275 218 188 180 199 189
275 271 269 289 298 309 331 204 198 97 117 208 254 277 240 242 198 205 212 219 256 220 274 242 205 233 221 98 97 97 72 68 89 86 147 153 159 209 287 301 272 332 150 209 230 218 210
284 277 275 270 276 296 316 347 208 214 167 114 242 220 218 263 244 257 254 243 292 268 239 234 216 218 157 159 238 289 98 317 18 24 163 221 151 232 282 276 303 184 200 184 186 279 196
248 262 293 303 283 272 293 308 340 225 230 227 239 230 236 291 253 252 169 219 243 226 257 228 234 203 170 248 209 248 250 62 185 132 151 119 88 260 179 255 254 244 189 198 205 276 190
247 245 257 268 299 298 287 291 312 297 227 233 231 264 246 256 268 253 230 214 178 196 268 166 173 183 185 181 213 217 253 84 233 178 170 162 193 212 207 261 280 154 149 158 221 249 184
256 258 243 249 254 276 291 280 286 302 257 242 220 236 276 260 263 273 270 266 244 194 213 163 150 180 160 206 214 243 219 187 237 160 181 175 164 188 178 223 280 152 123 193 208 147 191
249 249 255 243 239 250 265 277 276 286 291 263 226 237 251 271 269 271 279 274 253 265 252 195 256 164 185 186 212 277 247 188 263 264 204 238 206 190 207 220 45 187 215 204 206 179 191
Wind_Speed_850mb
10 12 14 14 14 15 16 16 17 17 18 19 19 21 24 26 28 29 30 29 25 22 12 6 5 7 4 3 2 19 18 10 10 9 7 12 8 7 7 6 4 5 1 10 17 28 25
13 14 15 15 16 17 18 19 18 18 19 18 19 21 24 26 28 31 32 28 26 22 12 5 6 7 7 5 1 17 10 6 8 11 20 13 6 11 11 5 2 2 18 26 19 14 10
16 16 17 17 18 19 19 20 21 19 19 18 19 21 24 27 30 32 33 30 27 17 9 8 6 6 6 9 6 20 2 5 6 8 12 14 14 2 7 6 3 6 10 15 5 4 7
15 16 17 19 20 21 22 22 22 21 20 20 22 25 26 28 29 31 31 30 25 14 7 9 7 7 5 8 2 16 8 5 4 6 6 6 4 5 3 3 4 5 4 16 7 9 4
17 16 19 19 19 20 21 24 25 23 21 22 24 28 30 31 31 31 29 28 21 11 7 9 9 7 5 12 3 8 6 5 6 4 4 1 2 2 3 4 3 6 18 28 20 4 9
17 16 19 22 22 23 22 24 25 24 22 23 25 28 30 33 31 29 26 27 14 9 8 11 12 5 12 10 11 5 5 7 6 8 3 2 1 5 2 10 8 14 19 21 32 13 20
17 18 23 28 26 24 22 24 26 26 24 22 25 27 29 33 30 26 25 14 7 6 9 10 7 4 16 9 15 3 2 9 5 4 6 2 7 8 1 3 3 12 20 39 34 22 20
20 22 26 30 33 27 20 21 24 26 26 25 23 24 27 32 31 22 23 13 11 13 11 16 14 9 11 11 9 3 1 9 7 8 4 6 11 7 2 3 10 14 31 27 18 17 27
24 24 26 32 28 22 24 22 26 27 29 27 27 25 26 33 24 26 20 25 16 11 7 5 11 8 7 8 8 3 4 8 5 7 7 10 4 7 3 7 11 15 21 19 35 44 20
23 24 27 28 23 19 20 25 32 30 32 31 28 26 24 29 15 30 17 24 15 17 5 5 4 3 6 6 4 4 3 5 4 6 4 11 5 4 10 5 4 12 6 25 33 14 9
25 27 31 22 20 20 20 21 22 28 27 34 32 28 25 24 23 20 20 17 15 9 9 5 5 6 5 4 4 5 1 3 6 5 5 4 5 4 5 3 2 14 29 26 7 8 11
36 34 21 21 24 23 22 25 25 24 26 31 29 27 31 23 22 17 18 17 10 1 12 3 4 4 3 2 1 3 3 3 4 3 7 6 1 3 3 4 5 21 12 7 2 5 7
13 13 16 20 21 24 32 29 28 27 26 25 25 27 33 27 16 18 10 8 4 7 2 1 2 1 2 3 3 1 1 3 4 4 4 4 4 3 4 6 5 17 15 7 6 5 6
11 13 14 14 20 22 27 34 40 36 30 26 26 25 29 31 22 15 4 6 10 1 4 0 1 1 6 1 4 1 3 6 5 3 2 3 5 3 4 4 3 12 6 4 14 11 13
12 12 15 15 15 20 24 29 33 35 32 28 25 21 30 30 22 15 9 4 7 3 2 2 3 2 6 4 4 5 8 5 5 10 5 3 5 6 5 3 5 8 3 4 7 4 9
16 15 16 15 17 18 27 27 33 21 22 21 20 20 17 16 12 15 3 11 6 2 2 5 5 2 6 6 5 4 10 7 10 3 4 5 7 1 6 4 9 4 13 3 5 11 13
15 20 15 18 19 19 24 20 25 19 12 4 8 4 2 9 12 9 5 7 2 1 6 7 5 4 11 5 6 5 6 5 5 9 7 8 3 5 3 8 6 7 6 5 3 5 7
12 17 16 16 20 16 21 12 3 5 3 4 5 2 9 13 3 1 3 2 1 2 7 8 6 1 6 4 4 7 6 2 13 16 8 8 2 7 0 2 3 2 4 6 5 4 8
13 11 13 10 17 16 16 19 12 7 4 4 4 5 11 12 2 3 1 4 8 6 10 5 8 8 1 5 6 5 3 4 14 11 6 11 4 7 5 4 4 8 9 7 8 3 12
13 11 14 17 20 25 17 17 10 15 10 11 4 3 4 9 3 2 4 5 4 8 10 6 4 5 2 6 6 5 4 5 10 4 8 12 4 10 7 5 3 6 11 18 9 6 4
15 16 14 14 17 18 22 5 14 7 9 15 7 3 6 1 4 6 1 3 4 5 8 7 6 15 11 7 4 8 6 6 6 13 6 3 7 3 10 4 5 8 10 22 22 7 12
15 14 17 13 16 17 17 7 10 4 14 16 5 4 4 3 3 9 9 6 6 3 8 7 11 6 14 9 3 3 9 9 7 14 9 4 3 2 7 2 6 12 17 22 27 11 24
16 15 16 15 17 18 17 13 4 9 9 4 4 6 2 9 7 4 5 6 4 2 9 5 12 6 11 12 17 13 8 2 6 12 17 9 5 2 7 2 9 12 12 24 10 13 11
23 18 14 15 14 20 16 9 17 11 9 8 8 7 2 4 6 8 6 9 7 10 7 4 13 7 2 7 8 8 13 13 8 9 7 10 6 2 8 6 5 2 3 5 11 11 29
23 22 19 18 15 18 19 11 25 22 7 5 10 11 8 4 8 7 8 8 8 8 7 7 13 10 14 3 3 3 1 1 4 1 4 2 5 3 5 5 13 4 9 13 13 9 27
36 29 27 25 21 19 17 18 9 32 26 13 10 11 10 4 8 12 3 5 4 4 2 4 5 12 11 2 3 4 6 0 4 5 7 9 9 2 4 5 6 3 5 12 4 7 19
43 40 34 28 21 23 20 18 15 7 29 27 17 14 13 11 17 24 9 7 7 4 2 3 7 9 12 4 6 7 4 3 6 15 13 8 7 11 8 9 17 4 13 14 3 6 27
44 39 45 41 30 21 24 24 19 15 11 14 25 18 12 14 20 29 32 26 12 9 4 10 5 6 5 7 7 4 6 6 4 7 12 17 18 9 8 7 12 23 16 12 3 3 41
45 49 40 48 42 31 19 24 26 21 13 12 20 21 27 15 16 22 34 31 34 32 21 21 6 7 15 7 5 2 6 4 2 6 5 7 10 7 18 10 2 62 11 36 9 8 34
Wind_Direction_850mb
26 18 16 12 6 4 357 356 355 353 355 355 357 355 353 351 348 347 346 343 338 334 321 311 182 182 193 126 81 360 2 30 43 56 119 88 99 128 136 161 200 241 292 272 268 289 290
22 13 10 8 5 357 352 350 350 351 351 356 356 353 351 349 349 345 341 338 333 326 301 261 190 183 205 237 251 347 349 65 83 83 77 83 103 123 118 149 233 222 293 290 291 282 281
13 11 359 353 352 353 352 346 343 344 347 349 351 351 348 344 343 343 338 335 330 320 281 228 202 190 220 202 311 340 110 137 107 105 99 83 69 153 136 136 155 296 296 302 266 201 262
348 347 349 349 349 346 341 342 340 340 340 343 344 342 342 339 338 341 336 334 327 316 258 224 214 195 214 193 307 345 160 156 119 153 121 84 75 66 55 350 104 279 249 337 68 278 276
328 328 331 327 332 338 337 338 337 336 336 339 339 338 338 338 336 334 332 330 318 304 251 225 213 206 209 184 197 18 171 230 197 196 180 124 278 71 282 348 165 58 321 322 329 205 284
298 313 324 328 317 316 326 331 330 329 330 335 338 339 338 337 336 339 334 329 311 284 242 228 227 188 192 205 192 30 204 196 223 173 191 250 203 241 250 8 342 318 320 311 307 327 269
293 304 317 318 317 302 302 314 319 320 322 328 335 344 344 343 337 342 343 336 344 275 225 227 218 218 154 192 197 308 265 185 188 191 233 34 246 256 256 121 285 286 292 301 304 333 282
290 304 301 306 307 295 289 299 301 310 311 315 322 335 346 348 343 347 352 2 333 288 295 240 216 197 175 182 193 307 157 183 203 232 189 217 242 121 151 236 275 295 304 308 313 273 294
296 300 306 320 309 283 270 270 289 297 304 305 310 319 338 347 345 350 357 0 349 349 264 241 208 199 201 200 201 168 149 168 219 218 215 253 83 131 297 304 305 300 286 310 305 322 276
281 299 315 318 326 324 296 287 280 289 290 296 300 305 322 339 344 344 354 352 357 344 294 170 204 203 187 181 216 180 114 172 176 268 213 259 114 202 266 275 356 309 104 317 319 320 316
304 304 306 298 299 301 297 294 292 291 294 286 291 298 309 325 326 336 333 340 348 356 307 105 149 174 188 200 146 217 70 150 226 192 172 75 192 218 268 144 216 261 321 308 292 260 312
295 295 292 294 285 285 288 287 288 293 299 298 292 290 293 306 317 320 327 332 341 327 248 124 136 176 219 137 174 282 152 94 137 197 215 277 231 245 294 284 232 307 311 281 203 251 248
310 304 282 278 292 302 274 272 280 287 299 310 297 280 274 285 281 296 319 351 12 231 77 3 290 244 262 210 206 280 124 181 244 262 218 192 177 135 322 274 159 17 336 327 271 253 308
299 320 335 300 288 304 313 292 270 275 283 298 311 288 273 268 263 255 150 63 232 91 241 89 143 188 255 65 213 199 205 222 193 202 130 297 246 197 4 32 29 57 10 34 299 316 313
276 290 315 325 326 330 326 325 296 274 275 284 301 281 256 258 260 234 148 158 242 223 337 313 227 184 241 208 255 235 221 231 157 186 226 196 237 118 57 129 282 116 60 87 265 201 274
274 266 288 301 312 327 332 342 349 309 278 285 292 232 237 254 244 177 105 233 225 96 51 58 264 235 280 181 204 223 193 148 160 151 159 124 274 157 134 155 57 42 139 204 159 309 296
270 282 268 289 296 307 324 5 30 13 39 4 245 229 213 201 177 137 230 228 323 67 214 200 248 231 256 272 209 240 218 141 169 137 106 143 253 130 166 201 160 157 161 134 244 243 294
283 287 294 300 305 306 319 331 331 75 145 166 288 65 187 163 102 162 236 284 46 346 271 267 250 177 257 279 257 242 242 246 157 156 155 165 247 258 168 360 325 24 171 165 208 164 237
317 334 346 322 314 335 322 325 242 275 229 200 215 116 196 178 245 230 167 232 223 182 224 250 214 216 170 223 237 226 235 73 156 173 164 164 205 287 193 189 177 225 179 155 109 113 227
323 337 346 356 359 349 346 354 346 256 273 210 194 126 100 196 208 259 229 221 233 208 247 181 204 157 243 227 214 294 244 144 177 172 138 149 259 252 256 311 52 204 188 186 184 213 181
296 310 323 341 353 354 357 32 43 75 244 188 204 221 162 158 235 214 194 305 212 248 225 206 233 219 205 236 224 229 206 155 174 171 116 183 256 234 272 280 250 263 208 192 202 191 235
266 298 317 334 348 347 360 169 60 90 165 175 225 170 115 159 147 174 197 222 227 214 181 221 232 164 216 234 237 345 176 206 194 177 190 141 255 278 268 132 223 269 229 214 228 235 263
276 265 288 313 328 334 348 196 135 63 146 163 217 252 272 174 161 176 222 243 280 150 210 222 226 176 198 249 291 268 206 319 201 173 190 172 201 273 268 287 278 275 218 188 180 199 189
275 271 269 289 298 309 331 204 198 97 117 208 254 277 240 242 198 205 212 219 256 220 274 242 205 233 221 98 97 97 72 68 89 86 147 153 159 209 287 301 272 332 150 209 230 218 210
284 277 275 270 276 296 316 347 208 214 167 114 242 220 218 263 244 257 254 243 292 268 239 234 216 218 157 159 238 289 98 317 18 24 163 221 151 232 282 276 303 184 200 184 186 279 196
248 262 293 303 283 272 293 308 340 225 230 227 239 230 236 291 253 252 169 219 243 226 257 228 234 203 170 248 209 248 250 62 185 132 151 119 88 260 179 255 254 244 189 198 205 276 190
247 245 257 268 299 298 287 291 312 297 227 233 231 264 246 256 268 253 230 214 178 196 268 166 173 183 185 181 213 217 253 84 233 178 170 162 193 212 207 261 280 154 149 158 221 249 184
256 258 243 249 254 276 291 280 286 302 257 242 220 236 276 260 263 273 270 266 244 194 213 163 150 180 160 206 214 243 219 187 237 160 181 175 164 188 178 223 280 152 123 193 208 147 191
249 249 255 243 239 250 265 277 276 286 291 263 226 237 251 271 269 271 279 274 253 265 252 195 256 164 185 186 212 277 247 188 263 264 204 238 206 190 207 220 45 187 215 204 206 179 191